Starlink 4037

operational
NORAD ID: 52663 Int'l Des: 2022-053 Owner: SPXS Country: US Constellation: starlink
LEOCIRCULAR

关于 Starlink 4037

正在加载描述...

实时位置

正在加载3D地球...

即将过境

高度历史

Altitude vs Time

uPlot chart will show altitude changes over time

两行轨道根数

1 52663U 22053H 25257.27551836 -.00000579 00000-0 -18313-4 0 9995
2 52663 53.2165 226.0756 0001570 89.1652 270.9520 15.08834534184412
Epoch: Sep 14, 2025 • Age: 26 hours

当前状态

高度 543.6 km
速度 7.60 km/s
星下点 45.77°N, 131.61°W
发射日期 May 18, 2022
运行时间 3.3 years
类型 internet

技术详情

分类 Payload
质量 297.00 kg
干质量 275.00 kg
总质量 297.00 kg
长度 0.20 m
直径 2.80 m
跨度 9.00 m
形状 Box + pan
制造商 SPXS
平台类型 Starlink
阶段状态 In Orbit
所有者/国家 SPXS/US

大型星座

Loading constellations...